Погода в Тернополе

Хотите узнать прогноз погоды в Тернополе? Тогда Вам сюда: Погода в Тернополе

Поиск расширенной информации на нашем сайте:

Полезная информация:

Новости сайта



02.01.2020
Опубликован Долгосрочный прогноз погоды по городам России и ближнего зарубежья на январь 2020 года.
Карты: Прогноз на январь и февраль 2020 года, Сравнение прогнозируемой аномалии приземной температуры воздуха на январь 2020 года по разным моделям.




Погода в Тернополе - сегодня

Время (UTC), дата Ветер
(°,м/с) 
Видим.   Явления Облачность Т
(°С)
Тd
(°С)
f(%) Тe
(°С)
Pmin
(гПа)
dP
(гПа)
Po
(мм)
O2
(г/м3)
Тmin Tmax R s Состояние
почвы
00 19.01.20 150 (ЮВ) 10 км    10/10 270 м 
[St]
-1.5 -3.5 86 -4  1026.7  -0.2  739  300           
03 19.01.20 160 (Ю) 10 км    10/10 240 м 
[St]
-1.9 -3.7 87 -5  1027.4  0.6  740  300           
06 19.01.20 180 (Ю) 10 км    10/10 210 м 
[St]
-2.3 -4.2 87 -5  1028.5  740  301  -2.4         
09 19.01.20 150 (ЮВ) 10 км    10/10 300 м 
[St]
-2 -5.5 77 -4  1030  1.5  741  302           
12 19.01.20 130 (ЮВ) 10 км    10/10 420 м 
[St]
-1.4 -5.8 72 -2  1030.7  0.8  742  301           
15 19.01.20 180 (Ю) 10 км    10/10 400 м 
[St]
-1.4 -6.1 70 -1  1032.7  1.9  743  302           
18 19.01.20 120 (ЮВ) 10 км    10/10 360 м 
[St]
-1.4 -5.8 72 -1  1034.9  2.1  745  302           
21 19.01.20 тихо ()   10 км    10/10 400 м 
[St]
-1.6 -5.7 74 -2  1036.7  1.7  746  303           
00 20.01.20 320 (СЗ) 10 км    10/10 360 м 
[St]
-1.7 -5.8 74 -1  1038.4  1.6  747  304           
03 20.01.20 350 (С) 10 км    10/10 330 м 
[St]
-1.9 -5.4 77 -1  1039.8  1.3  748  304           
06 20.01.20 020 (С) 10 км    10/10 330 м 
[St]
-2.1 -4.9 81 -4  1041.6  1.7  750  305  -2.2         
09 20.01.20 300 (СЗ) 10 км    10/10 420 м 
[St]
-1.4 -4.7 78 -3  1043.4  1.9  751  305           
12 20.01.20 300 (СЗ) 4000 м  слаб. снег  10/9 330 м средняя 
[Frnb|As op]
-0.4 -3.4 80 -3  1043.4  0.1  751  304           
15 20.01.20 310 (СЗ) 10 км  слаб. ливневой снег  10/10 300 м кучево-дожд. 
[Cb cap]
-0.3 -3.3 80 -3  1043.7  0.3  751  303          затоплена
водой 
18 20.01.20 310 (СЗ) 10 км  {ливн. осадки, снег}  10/10 300 м кучево-дожд. 
[Cb cap]
-0.3 -3.6 78 -3  1044  0.3  752  304    +0.1  0.0     
21 20.01.20 300 (СЗ) 10 км    10/10 480 м 
[Sc]
-0.2 -3.8 77 -4  1043.4  -0.6  751  303           
00 21.01.20 290 (З) 10 км    10/10 480 м 
[Sc]
-0.1 -3.4 78 -4  1041.9  -1.4  750  303           
03 21.01.20 280 (З) 10 км    10/10 450 м 
[Sc]
-0.3 -3.3 80 -4  1040  -1.8  749  302           
06 21.01.20 290 (З) 10 км    10/10 450 м 
[Sc]
-0.8 -3.6 81 -5  1039.1  -1  748  303  -0.9         
09 21.01.20 280 (З) 10 км    8/3 1000 м средняя, верхняя 
[Sc|Ac trans|Ci fib]
+0.7 -2.6 79 -3  1037.2  -1.6  747  300           
12 21.01.20 280 (З) 10  10 км    5/0 средняя, верхняя 
[Ac trans|Ci fib]
+3.4 -1.9 68 -1  1034.9  -1.8  746  297           
15 21.01.20 270 (З) 10 км    8/0 средняя 
[Ac trans]
+3 -4.2 59 1032.7  -2.2  744  297           
18 21.01.20 280 (З) 10 км    4/0 средняя 
[Ac trans]
+2.4 -4.2 62 -1  1030.6  -2.1  742  297    +4.2       
21 21.01.20 280 (З) 10 км    4/0 средняя 
[Ac trans]
+1.3 -0.9 85 -3  1030  -0.7  742  298           
00 22.01.20 300 (СЗ) 10 км    ясно 
+0.6 -1.7 85 -4  1029.1  -1  741  298           
Время (UTC), дата Ветер
(°,м/с) 
Видим.   Явления Облачность Т
(°С)
Тd
(°С)
f(%) Тe
(°С)
Pmin
(гПа)
dP
(гПа)
Po
(мм)
O2
(г/м3)
Тmin Tmax R s Состояние
почвы

Для получения пояснительной информации подведите курсор к названию столбца.

ПОГОДА в Тернополе - архив

Всё, что Вы хотите узнать о погоде в Тернополе - удобно и подробно!

Выберите нужную дату (начиная с 1 января 2019* года) и нажмите кнопку "Найти".
Будут отображены архивные сводки погоды по пункту Тернополь, начиная с указанной даты.


Отображать данные в формате CSV (для использования в таблицах Excel)


Внимание! Наш архив погоды предназначен исключительно для личного некоммерческого использования в познавательных целях. Если Вам необходимы официальные справки о состоянии погоды (для производственных, юридических, коммерческих и т.п. целей), обращайтесь в органы Росгидромета.

*Примечание: данная дата относится к архиву по метеостанциям СССР (Россия, СНГ, Балтия).
Архив по метеостанциям Зарубежной Европы и Азии (кроме Китая) хранится 10 дней, по другим регионам земного шара (Китай, Африка, Америка, Австралия, Океания) - 1 день.

Тернополь - район местоположения метеостанции


Название, широта, долгота, высота метеостанции:
Тернополь 49.5°ш. 25.7°д. 329 м над ур. моря [Украина]

Дополнительная информация

В oтличие oт бoльшинства пoгoдных сайтoв мы публикуем пoдрoбную метеoинфoрмацию в детальнoм прoфессиoнальнoм фoрмате.

Характеристики температуры и влажнoсти вoздуха измеряются на высoте 2 м в тени вдали oт зданий и деревьев.
Скoрoсть ветра измеряется на высoте 10 м (на урoвне рoста челoвека скoрoсть ветра ниже в 1.5-2 раза). Если метеoстанция нахoдится в гoрoде или в лесу, тo скoрoсть ветра занижена на 2-4 м/с пo сравнению с oткрытым местoм. Скoрoсть ветра над акватoриями крупных рек и oзёр, а также на вершинах хoлмoв на 2-5 м/с выше, чем в oбычных услoвиях.
Атмoсфернoе давление в разных тoчках местнoсти мoжет значительнo oтличаться oт давления на метеoстанции, в зависимoсти oт услoвий рельефа (при пoдъёме на 10 м давление пoнижается примернo на 1 мм рт.ст.).